Location: Paris
(48.6709°N, 2.3750°E)
Time: 00:20:57
(UTC+02:00)

QB50P2 - Pass Details

Date: 03 July 2022
Orbit: 590 x 605 km, 97.9° (Epoch: 15 August)

Event Time Altitude Azimuth Distance (km) Brightness Sun altitude
Rises 02:25:39 0° 25° (NNE) 2,863 ? -18.0°
Reaches altitude 10° 02:28:12 10° 39° (NE) 1,957 ? -18.0°
Maximum altitude 02:31:39 24° 94° (E) 1,275 ? -17.9°
Enters shadow 02:33:35 18° 131° (SE) 1,520 ? -17.8°
